Topeka, KS

1:20 PM CDT on August 29, 2016 (GMT -0500)
Forbes

Weather History for KFOE - January, 2012

Change the Weather History Date:

Monday, January 23, 2012

  Actual Average Record
Temperature  
Mean Temperature 37 °F -  
Max Temperature 48 °F 41 °F 73 °F (1967)
Min Temperature 24 °F 20 °F -10 °F (1962)
Degree Days  
Heating Degree Days 28    
Moisture  
Dew Point 25 °F    
Average Humidity 61    
Maximum Humidity 81    
Minimum Humidity 35    
Precipitation  
Precipitation 0.00 in - - ()
Sea Level Pressure  
Sea Level Pressure 29.89 in    
Wind  
Wind Speed 15 mph (WNW)    
Max Wind Speed 23 mph    
Max Gust Speed 34 mph    
Visibility 10 miles    
Events      
Averages and records for this station are not official NWS values.
T = Trace of Precipitation, MM = Missing Value Source: NWS Daily Summary

Daily Weather History Graph

Daily Weather History Graph

Search for Another Location

Airport or City:

Trip Planner

Search our weather history database for the weather conditions in past years. The results will help you decide how hot, cold, wet, or windy it might be!

Date:

Astronomy

Jan. 23, 2012 Rise Set
Actual Time 7:36 AM CST 5:33 PM CST
Civil Twilight 7:07 AM CST 6:01 PM CST
Nautical Twilight 6:35 AM CST 6:34 PM CST
Astronomical Twilight 6:03 AM CST 7:05 PM CST
Moon 7:32 AM CST (1/23) 6:21 PM CST (1/23)
Length of Visible Light 10h 54m
Length of Day
9h 56m
New Moon, 0% of the Moon is Illuminated
Jan 23
New Moon
Jan 30
First Quarter
Feb 7
Full
Feb 14
Last Quarter
Feb 21
New

Hourly Weather History & Observations

Time (CST) Temp. Windchill Dew Point Humidity Pressure Visibility Wind Dir Wind Speed Gust Speed Precip Events Conditions
12:08 AM 33.8 °F 21.6 °F 26.6 °F 75% 29.63 in 10.0 mi WNW 23.0 mph 34.5 mph N/A   Scattered Clouds
12:53 AM 34.0 °F 23.8 °F 28.0 °F 79% 29.66 in 10.0 mi WNW 16.1 mph - N/A   Partly Cloudy
1:33 AM 37.4 °F 29.3 °F 30.2 °F 75% 29.69 in 10.0 mi WNW 12.7 mph - N/A   Overcast
1:53 AM 37.0 °F 30.4 °F 30.9 °F 79% 29.72 in 10.0 mi WNW 9.2 mph - N/A   Overcast
2:36 AM 37.4 °F 28.2 °F 32.0 °F 81% 29.73 in 10.0 mi WNW 16.1 mph 23.0 mph N/A   Overcast
2:53 AM 37.0 °F 28.1 °F 30.9 °F 79% 29.74 in 10.0 mi West 15.0 mph - N/A   Mostly Cloudy
3:53 AM 41.0 °F 32.5 °F 30.0 °F 65% 29.77 in 10.0 mi West 17.3 mph 25.3 mph N/A   Overcast
4:53 AM 39.9 °F 31.1 °F 28.9 °F 65% 29.80 in 10.0 mi West 17.3 mph - N/A   Overcast
5:53 AM 39.9 °F 30.2 °F 27.0 °F 60% 29.83 in 10.0 mi WNW 20.7 mph 29.9 mph N/A   Overcast
6:53 AM 39.0 °F 30.3 °F 26.1 °F 60% 29.86 in 10.0 mi West 16.1 mph - N/A   Overcast
7:53 AM 37.9 °F 29.2 °F 26.1 °F 62% 29.89 in 10.0 mi West 15.0 mph - N/A   Overcast
8:53 AM 39.0 °F 30.3 °F 25.0 °F 57% 29.90 in 10.0 mi WNW 16.1 mph - N/A   Overcast
9:53 AM 39.9 °F 31.8 °F 25.0 °F 55% 29.94 in 10.0 mi WNW 15.0 mph - N/A   Mostly Cloudy
10:53 AM 43.0 °F 35.4 °F 25.0 °F 49% 29.96 in 10.0 mi WNW 16.1 mph 21.9 mph N/A   Clear
12:53 PM 46.9 °F - 24.1 °F 41% 29.94 in 10.0 mi WNW 16.1 mph - N/A   Clear
1:53 PM 48.0 °F - 23.0 °F 37% 29.93 in 10.0 mi WNW 16.1 mph 25.3 mph N/A   Clear
2:53 PM 48.9 °F - 21.9 °F 35% 29.94 in 10.0 mi WNW 13.8 mph - N/A   Clear
3:53 PM 48.9 °F - 23.0 °F 36% 29.96 in 10.0 mi West 17.3 mph 20.7 mph N/A   Clear
4:53 PM 46.0 °F 40.2 °F 21.9 °F 39% 29.98 in 10.0 mi West 12.7 mph - N/A   Clear
5:53 PM 37.0 °F 31.6 °F 21.0 °F 52% 30.00 in 10.0 mi West 6.9 mph - N/A   Clear
6:53 PM 34.0 °F 31.0 °F 19.9 °F 56% 30.03 in 10.0 mi WNW 3.5 mph - N/A   Clear
7:53 PM 30.9 °F - 19.9 °F 64% 30.05 in 10.0 mi Calm Calm - N/A   Clear
8:53 PM 28.0 °F 24.2 °F 19.0 °F 69% 30.06 in 10.0 mi South 3.5 mph - N/A   Clear
9:53 PM 26.1 °F - 17.1 °F 69% 30.06 in 10.0 mi Calm Calm - N/A   Clear
10:53 PM 26.1 °F - 18.0 °F 71% 30.06 in 10.0 mi Calm Calm - N/A   Clear
11:53 PM 24.1 °F - 17.1 °F 75% 30.07 in 10.0 mi Calm Calm - N/A   Clear